User: anonymous   Login
Location: Kott?ru
(16.6209°N, 80.6208°E)
Time: 00:47:52
(UTC+00:00)
Language:

XW-2D - Orbit

View from above orbital plane
View from above orbital plane
View from above satellite
View from above satellite

Ground track
Ground track

The orbit data is extracted from the following two-line orbital elements,

1 40907U 15049J   24201.83455261  .00066682  00000-0  10381-2 0  9995
2 40907  97.4696 222.4394 0008805 156.8004 203.3648 15.53633998489766
Epoch (UTC): 19 July 2024 20:01:45
Eccentricity: 0.0008805
inclination: 97.4696°
perigee height: 400 km
apogee height: 412 km
right ascension of ascending node: 222.4394°
argument of perigee: 156.8004°
revolutions per day: 15.53633998
mean anomaly at epoch: 203.3648°
orbit number at epoch: 48976

The dashed part of the orbit path shows where the satellite is in the earth's shadow,  

DLR